Flag for U.S.A. Weather past 2 weeks in Hudson, Wisconsin, U.S.A.

Now
72 °F

Sunny.


Feels Like: 76 °F
Forecast: 46 / 69 °F
Wind: 6 mph from Southeast

Location: St. Paul Downtown Holman Field

Current Time: Sep 18, 2014 at 3:43:24 PM

Latest Report: Sep 18, 2014 at 2:53 PM


Visibility: 10 mi

Pressure: 30.03 "Hg

Humidity: 59%

Dew point: 57 °F

Location of HudsonLocation

Historic Weather in Hudson — Graph

°F

Hudson temperature yesterday

Maximum temperature yesterday: 74 °F (at 3:53 PM)
Minimum temperature yesterday: 54 °F (at 12:53 AM)
Average temperature yesterday: 62 °F

Past Weeks' High & Low Weather Summary

 TemperatureHumidityPressure
High83 °F (Sep 4, 1:53 PM)100% (Sep 13, 6:53 AM)30.45 "Hg (Sep 13, 6:53 AM)
Low37 °F (Sep 13, 6:53 AM)36% (Sep 7, 2:53 PM)29.62 "Hg (Sep 4, 4:53 AM)
Average59 °F73%30.06 "Hg
* Reported Sep 3 1:53 PM — Sep 18 1:53 PM, Hudson, Weather by CustomWeather, © 2014

Note: Actual official high and low records may vary slightly from our data, if they occured in-between our weather recording intervals... More about our weather records

Advertising

Hudson weather history for previous 24 hours

 ConditionsComfort  
Time TempWeatherWind HumidityBarometerVisibility
1:53 PM
Sep 18
69 °FSunny.3 mph66%30.06 "Hg10 mi
12:53 PM66 °FSunny.5 mph70%30.09 "Hg10 mi
11:53 AM58 °FPartly sunny.5 mph84%30.11 "Hg10 mi
10:53 AM55 °FLow clouds.6 mph90%30.11 "Hg10 mi
9:53 AM52 °FLow clouds.6 mph93%30.12 "Hg9 mi
8:53 AM50 °FLow clouds.7 mph93%30.11 "Hg10 mi
7:53 AM49 °FClear.5 mph90%30.10 "Hg10 mi
6:53 AM48 °FClear.5 mph93%30.09 "Hg10 mi
5:53 AM48 °FClear.No wind89%30.08 "Hg10 mi
4:53 AM49 °FClear.No wind90%30.07 "Hg10 mi
3:53 AM49 °FClear.5 mph93%30.07 "Hg10 mi
2:53 AM51 °FClear.5 mph89%30.06 "Hg10 mi
1:53 AM53 °FClear.5 mph86%30.06 "Hg10 mi
12:53 AM55 °FClear.7 mph87%30.05 "Hg10 mi
11:53 PM
Sep 17
57 °FClear.3 mph87%30.03 "Hg10 mi
10:53 PM57 °FClear.No wind90%30.01 "Hg10 mi
9:53 PM58 °FClear.No wind87%29.99 "Hg10 mi
8:53 PM60 °FClear.No wind83%29.99 "Hg10 mi
7:53 PM62 °FSunny.3 mph80%29.97 "Hg10 mi
6:53 PM69 °FSunny.3 mph57%29.95 "Hg10 mi
5:53 PM70 °FSunny.7 mph55%29.94 "Hg10 mi
4:53 PM71 °FScattered clouds.5 mph55%29.93 "Hg10 mi
3:53 PM74 °FPassing clouds.5 mph50%29.93 "Hg10 mi
Weather by CustomWeather, © 2014

See weather overviewHow to use our weather pages